Tracking 28794 objects as of 19-Apr-2024
HD Live streaming from Space Station
objects crossing your sky now

ATLAS 5 CENTAUR DEB

Track ATLAS 5 CENTAUR DEB now!


NORAD ID: 46850
Int'l Code: 2018-079DF
Perigee: 9,349.9 km
Apogee: 35,011.7 km
Inclination: 11.8 °
Period: 800.2 minutes
Semi major axis: 28551 km
RCS: Unknown
Launch date: October 17, 2018
Source: United States (US)
Launch site: AIR FORCE EASTERN TEST RANGE (AFETR)

Note: This is SATELLITE DEBRIS
Your satellite tracking list
Your tracking list is empty




NASA's NSSDC Master Catalog

Two Line Element Set (TLE):
1 46850U 18079DF  24108.47191145 -.00000048  00000-0  00000+0 0  9997
2 46850  11.7887 109.0126 4493901 172.4028 197.9111  1.79950204 23214
Source of the keplerian elements: AFSPC